Simultaneous Nadir Overpasses (SNOs) Predictions

Prediction of SNOs between GOES-16 and TERRA Satellite Orbit:

Table of predicted SNOs for the next 14.0 days since TLE Epoch: 10/8/2022
Index Date Time (GOES-16) GOES-16 Lat,Lon TERRA Lat,Lon Distance(km) Time Diff (sec)
1 10/08/2022 03:32:45 0.08, -75.18 -0.73, -79.08 443.10 80
2 10/09/2022 14:59:05 -0.08, -75.20 -0.98, -70.92 486.96 80
3 10/10/2022 03:20:26 0.08, -75.19 -0.14, -76.11 104.39 80
4 10/12/2022 03:05:28 0.08, -75.21 0.53, -73.15 235.07 80
5 10/12/2022 15:26:42 -0.08, -75.23 0.55, -78.31 349.13 80
6 10/14/2022 15:14:23 -0.07, -75.25 -0.08, -75.34 9.44 80
7 10/16/2022 15:04:43 -0.06, -75.28 -0.67, -72.36 331.63 80
8 10/17/2022 03:26:05 0.06, -75.27 -0.44, -77.55 259.06 80
9 10/19/2022 03:11:06 0.06, -75.30 0.23, -74.58 82.50 80
10 10/21/2022 02:58:46 0.05, -75.34 0.86, -71.61 424.74 80
11 10/21/2022 15:19:59 -0.05, -75.36 0.26, -76.76 158.79 80
